Powrót do katalogu

STARLINK-36794

AktywnyŁącznośćVLEO
NORAD 68955·PAYLOAD·🇺🇸 United States

Wystrzelony May 1, 2026 z Cape Canaveral Space Force Station

Loading…

Następne Przeloty (najbliższe 24 godziny)

TLE

ŚwieżeSource: CelesTrak SupGP

Epoka: Sep 15, 2026, 04:25 UTC

1 68955C 26099E   26258.18451389 -.00019264  00000+0 -56924-3 0  2581
2 68955  53.1573 100.8368 0001213  86.2962 343.5692 15.34396622    19

Śledź STARLINK-36794 w czasie rzeczywistym z AllMySat

Download on the App Store